EW1914 Weather Reports


time (UTC)temp
F
wind
direction
speed
knots
gust
knots
rain 1hr
in
rain 24hr
in
rain mn
in
humidity
%
barometer
mb
20200531081354 53 292 0.0 2.6 0.00 0.26 0.00 91 1015.3
20200531080401 53 180 0.0 0.0 0.00 0.26 0.00 92 1015.2
20200531075402 53 318 0.0 0.0 0.00 0.26 0.00 91 1014.9
20200531074350 53 285 0.9 5.2 0.00 0.26 0.00 91 1014.8
20200531073345 53 271 0.0 1.7 0.00 0.26 0.00 91 1014.8
20200531072358 53 277 0.0 1.7 0.00 0.26 0.00 92 1014.8
20200531071358 53 291 0.0 2.6 0.00 0.26 0.00 91 1014.9
20200531070352 54 239 0.0 0.0 0.00 0.26 0.00 92 1015.0
20200531065327 54 180 0.0 0.9 0.00 0.26 0.26 91 1015.1
20200531064304 54 180 0.0 1.7 0.00 0.24 0.25 91 1015.0
20200531063304 54 315 0.0 0.0 0.00 0.24 0.25 92 1015.0
20200531062324 54 336 0.0 1.7 0.00 0.24 0.25 92 1015.2
20200531061309 55 8 0.0 1.7 0.00 0.24 0.24 92 1015.3
20200531060257 54 266 0.0 0.0 0.00 0.24 0.24 92 1015.1
20200531055221 54 238 0.0 1.7 0.00 0.24 0.24 92 1015.0
20200531054240 54 97 0.0 0.0 0.00 0.24 0.24 92 1014.9
20200531053224 54 97 0.0 0.9 0.00 0.24 0.24 92 1014.8
20200531052210 54 281 0.0 0.0 0.00 0.24 0.24 91 1014.6
20200531051212 54 281 0.0 1.7 0.00 0.24 0.24 91 1014.6
20200531050232 54 302 0.0 1.7 0.00 0.24 0.24 90 1014.5
20200531045209 54 302 0.9 6.1 0.00 0.24 0.24 90 1014.5
20200531044217 54 303 0.0 1.7 0.00 0.24 0.24 90 1014.5
20200531043230 54 310 0.9 2.6 0.00 0.24 0.24 91 1014.4
20200531042216 55 289 0.0 0.9 0.00 0.24 0.24 91 1014.4
20200531041238 55 310 0.0 0.0 0.00 0.24 0.24 90 1014.4
20200531040239 55 308 0.0 2.6 0.00 0.24 0.24 90 1014.2
20200531035252 55 295 0.9 4.3 0.00 0.24 0.24 89 1014.0
20200531034225 55 289 0.9 4.3 0.00 0.24 0.24 90 1014.0
20200531033232 55 295 0.0 0.9 0.00 0.24 0.24 91 1014.0
20200531032219 55 296 0.0 0.0 0.00 0.24 0.24 91 1014.1
20200531031148 55 293 0.0 2.6 0.00 0.24 0.24 90 1014.0
20200531030113 56 313 0.0 0.0 0.00 0.24 0.24 90 1014.0
20200531025132 56 313 0.0 1.7 0.00 0.24 0.24 90 1013.9
20200531024103 56 180 0.0 0.0 0.00 0.24 0.24 90 1013.8
20200531023041 56 180 0.0 1.7 0.00 0.24 0.24 90 1013.8
20200531022027 56 287 0.0 1.7 0.00 0.24 0.24 92 1013.5
20200531021001 56 304 0.0 1.7 0.00 0.24 0.24 92 1013.4
20200531015932 56 39 0.0 0.0 0.00 0.24 0.24 92 1013.4
20200531014905 56 39 0.0 0.0 0.00 0.24 0.24 92 1013.2
20200531013914 56 39 0.0 0.0 0.00 0.24 0.24 92 1013.1
20200531012913 56 39 0.0 0.0 0.00 0.24 0.24 92 1013.1
20200531011926 56 39 0.0 0.0 0.00 0.24 0.24 92 1013.2
20200531010914 56 39 0.0 0.0 0.00 0.24 0.24 91 1013.0
20200531005924 56 39 0.0 0.0 0.00 0.24 0.24 91 1012.9
20200531004942 56 39 0.0 0.0 0.00 0.24 0.24 91 1013.1
20200531003958 56 39 0.0 0.0 0.00 0.24 0.24 91 1013.0
20200531002937 56 306 0.0 0.0 0.00 0.24 0.24 90 1013.0
20200531001922 56 302 0.0 0.0 0.00 0.24 0.24 91 1013.0
20200531000851 56 309 0.0 3.5 0.04 0.24 0.24 91 1012.9
20200530235817 56 296 0.0 2.6 0.04 0.24 0.24 90 1012.9
20200530234820 56 266 0.0 0.9 0.08 0.23 0.23 90 1012.9
20200530233814 56 285 0.9 7.0 0.10 0.21 0.21 89 1013.1
20200530232809 57 292 0.9 7.0 0.09 0.21 0.21 88 1012.3
20200530231743 57 316 0.0 3.5 0.13 0.19 0.19 87 1011.8
20200530230758 58 306 0.0 0.0 0.25 0.16 0.16 86 1013.2
20200530225750 58 306 0.0 0.9 0.37 0.09 0.09 85 1013.6
20200530224809 58 306 0.0 0.0 0.18 0.04 0.04 83 1013.8
20200530223827 59 289 0.9 4.3 0.00 0.02 0.02 82 1013.6
20200530222800 60 293 0.9 8.7 0.00 0.02 0.02 78 1013.6
20200530221750 60 286 2.6 8.7 0.00 0.02 0.02 77 1013.1
20200530220804 61 320 1.7 7.8 0.00 0.02 0.02 76 1012.5
20200530215750 62 312 2.6 6.1 0.00 0.02 0.02 73 1011.8
20200530214803 62 299 1.7 5.2 0.00 0.02 0.02 72 1011.6
20200530213823 62 302 0.0 5.2 0.00 0.02 0.02 73 1011.2
20200530212834 62 297 0.9 5.2 0.00 0.02 0.02 70 1010.4
20200530211812 63 338 0.0 1.7 0.00 0.02 0.02 68 1009.8
20200530210825 63 303 0.9 4.3 0.00 0.02 0.02 67 1009.8
20200530205808 63 309 0.9 7.0 0.00 0.02 0.02 66 1009.7
20200530204742 63 288 0.0 7.8 0.00 0.02 0.02 63 1009.7
20200530203732 64 339 0.9 7.8 0.00 0.02 0.02 62 1009.6
20200530202704 64 320 1.7 7.8 0.00 0.02 0.02 61 1009.5
20200530201702 64 301 2.6 7.8 0.00 0.02 0.02 61 1009.5
20200530200703 64 310 0.9 7.8 0.00 0.02 0.02 60 1009.4
20200530195705 64 270 1.7 7.8 0.00 0.02 0.02 59 1009.4
20200530194725 64 314 2.6 7.8 0.00 0.02 0.02 59 1009.4
20200530193741 64 322 2.6 8.7 0.00 0.02 0.02 58 1009.4
20200530192802 64 295 3.5 10.4 0.00 0.02 0.02 61 1009.3
20200530191800 64 287 4.3 10.4 0.00 0.02 0.02 62 1009.4
20200530190800 65 295 4.3 9.6 0.00 0.02 0.02 62 1009.4
20200530185751 64 286 3.5 8.7 0.00 0.02 0.02 64 1009.5
20200530184808 63 293 2.6 9.6 0.00 0.02 0.02 67 1009.2
20200530183824 62 330 1.7 9.6 0.00 0.02 0.02 71 1009.2
20200530182824 61 284 2.6 9.6 0.00 0.02 0.02 75 1008.9
20200530181847 61 312 2.6 8.7 0.00 0.02 0.02 74 1008.8
20200530180832 60 288 0.9 5.2 0.00 0.02 0.02 76 1008.8
20200530175808 60 308 0.9 5.2 0.00 0.02 0.02 77 1008.7
20200530174801 60 313 0.9 4.3 0.00 0.02 0.02 78 1008.7
20200530173728 60 293 0.9 4.3 0.00 0.02 0.02 77 1008.6
20200530172705 60 342 0.0 5.2 0.00 0.02 0.02 77 1008.5
20200530171722 60 350 0.0 4.3 0.00 0.02 0.02 78 1008.4
20200530170659 60 331 0.9 5.2 0.00 0.02 0.02 78 1008.5
20200530165656 60 320 0.0 3.5 0.00 0.02 0.02 78 1008.0
20200530164653 60 28 0.0 1.7 0.00 0.02 0.02 80 1007.9
20200530163650 60 341 0.0 3.5 0.00 0.02 0.02 82 1008.0
20200530162620 59 349 0.0 4.3 0.00 0.02 0.02 84 1008.2
20200530161627 59 349 0.9 4.3 0.00 0.02 0.02 83 1008.4
20200530160612 58 26 0.0 5.2 0.00 0.02 0.02 87 1008.1
20200530155616 57 310 0.0 2.6 0.00 0.01 0.01 87 1008.3
20200530154619 57 355 0.0 0.9 0.00 0.01 0.01 88 1008.4
20200530153555 56 355 0.0 0.9 0.00 0.01 0.01 88 1008.8
20200530152523 56 310 0.0 0.0 0.00 0.01 0.01 88 1008.7
20200530151505 56 41 0.0 3.5 0.00 0.01 0.01 90 1008.6
20200530150442 56 271 0.0 0.0 0.00 0.01 0.01 89 1008.5
20200530145453 56 120 0.0 0.0 0.00 0.01 0.01 89 1009.6
20200530144438 56 80 0.0 2.6 0.00 0.01 0.01 88 1009.2
20200530143456 56 180 1.7 6.1 0.00 0.01 0.01 87 1008.9
20200530142432 56 180 0.9 4.3 0.00 0.01 0.01 87 1008.7
20200530141414 57 180 0.9 4.3 0.00 0.00 0.00 86 1008.5
20200530140432 57 12 0.0 2.6 0.00 0.00 0.00 85 1008.2
20200530135433 57 180 0.0 0.9 0.00 0.00 0.00 83 1009.4
20200530134455 58 78 0.0 2.6 0.00 0.00 0.00 82 1009.8
20200530133450 58 107 0.0 0.0 0.00 0.00 0.00 81 1009.8
20200530132454 58 180 0.0 1.7 0.00 0.00 0.00 77 1010.3
20200530131457 58 104 0.0 2.6 0.00 0.00 0.00 75 1010.5
20200530130500 58 239 0.9 3.5 0.00 0.00 0.00 75 1010.8
20200530125513 58 180 0.0 3.5 0.00 0.00 0.00 75 1009.7
20200530124531 58 31 0.0 2.6 0.00 0.00 0.00 75 1008.6
20200530123543 58 328 0.0 0.0 0.00 0.00 0.00 74 1008.6
20200530122523 58 328 0.0 0.0 0.00 0.00 0.00 74 1008.7
20200530121546 58 4 0.0 0.9 0.00 0.00 0.00 73 1008.7
20200530120608 58 342 0.0 1.7 0.00 0.00 0.00 72 1008.6
20200530115626 58 345 0.0 0.0 0.00 0.00 0.00 72 1008.6
20200530114647 58 355 0.0 3.5 0.00 0.00 0.00 71 1008.4
20200530113649 59 35 0.0 0.0 0.00 0.00 0.00 71 1008.5
20200530112653 59 351 0.0 1.7 0.00 0.00 0.00 70 1008.6
20200530111644 59 15 0.0 2.6 0.00 0.00 0.00 70 1008.4
20200530110707 59 23 0.0 0.0 0.00 0.00 0.00 69 1008.5
20200530105725 60 1 0.0 0.9 0.00 0.00 0.00 68 1008.3
20200530104737 60 355 0.0 0.0 0.00 0.00 0.00 68 1008.1
20200530103720 60 14 0.0 4.3 0.00 0.00 0.00 68 1008.0
20200530102723 60 340 0.9 4.3 0.00 0.00 0.00 67 1007.9
20200530101722 60 301 0.0 2.6 0.00 0.00 0.00 67 1008.1
20200530100705 60 324 0.0 6.1 0.00 0.00 0.00 66 1008.5
20200530095639 60 18 0.0 9.6 0.00 0.00 0.00 67 1007.9
20200530094656 61 345 0.9 9.6 0.00 0.00 0.00 66 1007.9
20200530093711 61 309 0.0 9.6 0.00 0.00 0.00 65 1007.8
20200530092651 61 331 0.0 5.2 0.00 0.00 0.00 65 1008.1
20200530091626 61 22 0.0 1.7 0.00 0.00 0.00 64 1008.0
20200530090612 61 24 0.9 4.3 0.00 0.00 0.00 64 1008.1
20200530085627 61 314 0.0 6.1 0.00 0.00 0.00 64 1008.1
20200530084559 61 16 0.0 1.7 0.00 0.00 0.00 63 1008.1
20200530083548 61 310 0.0 1.7 0.00 0.00 0.00 63 1008.1
20200530082611 62 6 0.0 1.7 0.00 0.00 0.00 62 1008.1